Location: Unspecified
(52.4292°N, 19.3359°E)
Time: 17:41:59
(UTC+02:00)

Transit 2A Rocket - Pass Details

Date: 24 May 2024
Orbit: 583 x 910 km, 66.7° (Epoch: 22 June)

Event Time Altitude Azimuth Distance (km) Brightness Sun altitude
Rises 14:22:44 0° 309° (NW) 3,453 8.4 52.7°
Reaches altitude 10° 14:26:27 10° 286° (WNW) 2,556 8.1 52.3°
Maximum altitude 14:29:19 14° 257° (WSW) 2,305 8.2 52.0°
Drops below altitude 10° 14:32:14 10° 228° (SW) 2,588 8.6 51.7°
Sets 14:36:04 0° 204° (SSW) 3,529 9.0 51.3°
